82610 UNNT-XHBU

Flight info

Callsign 82610
Flight time N/A
Altitude 33000
Route K0870F330 OGATI A308 RATKO A307 KEDRA A91 MIKET A817 RO B151 BRT G363 GU G229 NINON DCT MAGOR
Aircraft T154/M-SDGIRWY/S

Departure

Time 2026-05-01 10:36
Airport Novosibirsk Tolmachevo Airport (UNNT)

Arrival

Time N/A
Airport XHBU
Time Latitude Longitude Altitude Speed Heading
2026-05-01 09:44 55.00826 82.67888 380 ft 0 kts 181°
2026-05-01 10:14 55.00823 82.67888 379 ft 1 kts 181°
2026-05-01 10:14 55.00802 82.67885 379 ft 4 kts 194°
2026-05-01 10:14 55.00781 82.67828 379 ft 7 kts 262°
2026-05-01 10:15 55.00779 82.67729 379 ft 8 kts 271°
2026-05-01 10:15 55.00780 82.67624 379 ft 8 kts 271°
2026-05-01 10:15 55.00798 82.67526 379 ft 8 kts 318°
2026-05-01 10:15 55.00854 82.67498 379 ft 8 kts 350°
2026-05-01 10:16 55.00916 82.67481 379 ft 9 kts 351°
2026-05-01 10:16 55.00964 82.67467 379 ft 1 kts 352°
2026-05-01 10:16 55.00983 82.67463 379 ft 0 kts 352°
2026-05-01 10:17 55.00986 82.67462 379 ft 0 kts 352°
2026-05-01 10:17 55.00992 82.67461 379 ft 0 kts 352°
2026-05-01 10:17 55.00999 82.67459 379 ft 1 kts 352°
2026-05-01 10:18 55.01010 82.67456 379 ft 0 kts 351°
2026-05-01 10:18 55.01013 82.67455 379 ft 0 kts 351°
2026-05-01 10:18 55.01016 82.67454 379 ft 0 kts 351°
2026-05-01 10:19 55.01021 82.67452 379 ft 1 kts 351°
2026-05-01 10:19 55.01045 82.67445 379 ft 5 kts 351°
2026-05-01 10:19 55.01089 82.67427 379 ft 6 kts 331°
2026-05-01 10:20 55.01105 82.67241 379 ft 10 kts 263°
2026-05-01 10:20 55.01094 82.67105 379 ft 12 kts 260°
2026-05-01 10:20 55.01082 82.66951 379 ft 13 kts 274°
2026-05-01 10:20 55.01098 82.66788 379 ft 14 kts 269°
2026-05-01 10:21 55.01074 82.66611 379 ft 16 kts 248°
2026-05-01 10:21 55.00986 82.66277 379 ft 14 kts 237°
2026-05-01 10:21 55.00961 82.66139 379 ft 13 kts 262°
2026-05-01 10:22 55.00933 82.65839 379 ft 11 kts 261°
2026-05-01 10:22 55.00909 82.65569 379 ft 10 kts 261°
2026-05-01 10:23 55.00896 82.65425 379 ft 13 kts 261°
2026-05-01 10:23 55.00870 82.65005 379 ft 15 kts 275°
2026-05-01 10:23 55.00892 82.64837 379 ft 13 kts 283°
2026-05-01 10:24 55.00933 82.64526 379 ft 12 kts 283°
2026-05-01 10:24 55.00973 82.64216 379 ft 11 kts 283°
2026-05-01 10:25 55.00990 82.64092 379 ft 2 kts 283°
2026-05-01 10:25 55.00990 82.64088 379 ft 0 kts 283°
2026-05-01 10:32 55.00997 82.64039 379 ft 5 kts 293°
2026-05-01 10:32 55.01046 82.64002 379 ft 10 kts 351°
2026-05-01 10:32 55.01130 82.63805 379 ft 13 kts 261°
2026-05-01 10:33 55.01094 82.63419 379 ft 19 kts 261°
2026-05-01 10:33 55.01043 82.62851 379 ft 27 kts 261°
2026-05-01 10:34 55.01011 82.62506 379 ft 26 kts 250°
2026-05-01 10:34 55.00956 82.62318 379 ft 12 kts 313°
2026-05-01 10:34 55.00996 82.62354 379 ft 7 kts 78°
2026-05-01 10:35 55.01008 82.62477 379 ft 0 kts 81°
2026-05-01 10:35 55.01027 82.62699 379 ft 52 kts 82°
2026-05-01 10:35 55.01125 82.63760 380 ft 122 kts 82°
2026-05-01 10:35 55.01291 82.65572 427 ft 175 kts 82°
2026-05-01 10:36 55.01658 82.69504 1328 ft 201 kts 84°
2026-05-01 10:36 55.01878 82.72067 1728 ft 231 kts 83°
2026-05-01 10:36 55.02142 82.74995 2140 ft 255 kts 82°
2026-05-01 10:37 55.02452 82.78067 2853 ft 262 kts 81°
2026-05-01 10:37 55.03019 82.84336 4424 ft 261 kts 94°
2026-05-01 10:37 55.02620 82.87329 5205 ft 256 kts 118°
2026-05-01 10:38 55.01535 82.89843 5618 ft 267 kts 139°
2026-05-01 10:38 55.00158 82.92081 6051 ft 279 kts 137°
2026-05-01 10:38 54.98771 82.94415 6809 ft 280 kts 137°
2026-05-01 10:38 54.97424 82.96938 7510 ft 282 kts 125°
2026-05-01 10:39 54.96583 83.00017 8055 ft 289 kts 104°
2026-05-01 10:39 54.96278 83.03487 8737 ft 291 kts 98°
2026-05-01 10:39 54.96050 83.06986 9372 ft 294 kts 97°
2026-05-01 10:39 54.95833 83.10580 9960 ft 297 kts 96°
2026-05-01 10:40 54.95621 83.14195 10542 ft 300 kts 96°
2026-05-01 10:40 54.95412 83.17776 11130 ft 302 kts 96°
2026-05-01 10:40 54.95197 83.21466 11716 ft 304 kts 96°
2026-05-01 10:40 54.94979 83.25159 12270 ft 307 kts 96°
2026-05-01 10:41 54.94758 83.28896 12800 ft 310 kts 96°
2026-05-01 10:41 54.94537 83.32625 13355 ft 313 kts 96°
2026-05-01 10:41 54.94082 83.40204 14437 ft 318 kts 96°
2026-05-01 10:42 54.93847 83.44104 14971 ft 321 kts 96°
2026-05-01 10:42 54.93615 83.47913 15442 ft 324 kts 96°
2026-05-01 10:42 54.93402 83.51398 15928 ft 326 kts 96°
2026-05-01 10:42 54.93160 83.55363 16407 ft 329 kts 96°
2026-05-01 10:43 54.92915 83.59324 16919 ft 331 kts 96°
2026-05-01 10:43 54.92661 83.63415 17379 ft 334 kts 96°
2026-05-01 10:43 54.92415 83.67361 17833 ft 336 kts 97°
2026-05-01 10:43 54.92161 83.71430 18217 ft 339 kts 97°
2026-05-01 10:44 54.91906 83.75497 18716 ft 341 kts 97°
2026-05-01 10:44 54.91645 83.79627 19152 ft 344 kts 97°
2026-05-01 10:44 54.91384 83.83716 19633 ft 346 kts 97°
2026-05-01 10:44 54.91115 83.87917 20057 ft 349 kts 97°
2026-05-01 10:45 54.90843 83.92144 20522 ft 351 kts 97°
2026-05-01 10:45 54.90570 83.96362 20945 ft 354 kts 97°
2026-05-01 10:45 54.90287 84.00691 21373 ft 357 kts 97°
2026-05-01 10:45 54.90006 84.04991 21766 ft 360 kts 97°
2026-05-01 10:46 54.89708 84.09353 22173 ft 361 kts 97°
2026-05-01 10:46 54.89401 84.13740 22550 ft 364 kts 97°
2026-05-01 10:46 54.89099 84.18117 22977 ft 366 kts 97°
2026-05-01 10:46 54.88796 84.22570 23395 ft 369 kts 97°
2026-05-01 10:47 54.88495 84.27011 23789 ft 372 kts 97°
2026-05-01 10:47 54.88189 84.31510 24214 ft 374 kts 97°
2026-05-01 10:47 54.87886 84.35953 24603 ft 376 kts 97°
2026-05-01 10:47 54.87576 84.40488 24957 ft 379 kts 97°
2026-05-01 10:48 54.87264 84.45022 25388 ft 380 kts 97°
2026-05-01 10:48 54.86944 84.49641 25725 ft 384 kts 97°
2026-05-01 10:48 54.86622 84.54260 26101 ft 386 kts 97°
2026-05-01 10:48 54.86298 84.58870 26472 ft 388 kts 96°
2026-05-01 10:49 54.85971 84.63502 26837 ft 390 kts 97°
2026-05-01 10:49 54.85641 84.68150 27119 ft 392 kts 97°
2026-05-01 10:49 54.85371 84.72896 27439 ft 394 kts 95°
2026-05-01 10:49 54.85145 84.77665 27896 ft 396 kts 95°
2026-05-01 10:50 54.84917 84.82407 28258 ft 401 kts 95°
2026-05-01 10:50 54.84675 84.87238 28736 ft 401 kts 95°
2026-05-01 10:50 54.84424 84.92074 29089 ft 406 kts 95°
2026-05-01 10:50 54.84166 84.96932 29546 ft 407 kts 95°
2026-05-01 10:51 54.83903 85.01880 29888 ft 411 kts 95°
2026-05-01 10:51 54.83636 85.06790 30348 ft 412 kts 95°
2026-05-01 10:51 54.83363 85.11756 30724 ft 415 kts 95°
2026-05-01 10:51 54.83084 85.16817 31121 ft 416 kts 95°
2026-05-01 10:52 54.82804 85.21802 31510 ft 418 kts 94°
2026-05-01 10:52 54.82521 85.26864 31833 ft 421 kts 94°
2026-05-01 10:52 54.82243 85.31885 32279 ft 422 kts 94°
2026-05-01 10:52 54.81943 85.36929 32668 ft 423 kts 94°
2026-05-01 10:53 54.81632 85.42074 32905 ft 429 kts 94°
2026-05-01 10:53 54.80987 85.52492 33085 ft 447 kts 94°
2026-05-01 10:53 54.80649 85.57964 33100 ft 458 kts 94°
2026-05-01 10:54 54.80309 85.63464 33095 ft 468 kts 94°
2026-05-01 10:54 54.79584 85.74933 33096 ft 482 kts 95°
2026-05-01 10:55 54.78854 85.86304 33087 ft 471 kts 95°
2026-05-01 10:55 54.78124 85.97637 33094 ft 477 kts 95°
2026-05-01 10:56 54.77385 86.09046 33088 ft 473 kts 95°
2026-05-01 10:56 54.76632 86.20476 33090 ft 475 kts 95°
2026-05-01 10:57 54.75869 86.31898 33085 ft 474 kts 95°
2026-05-01 10:57 54.75101 86.43288 33090 ft 475 kts 95°
2026-05-01 10:58 54.74309 86.54724 33088 ft 475 kts 95°
2026-05-01 10:58 54.73517 86.66106 33085 ft 474 kts 96°
2026-05-01 10:59 54.72744 86.77080 33103 ft 476 kts 96°
2026-05-01 10:59 54.71923 86.88557 33118 ft 474 kts 96°
2026-05-01 11:00 54.71099 86.99963 33118 ft 476 kts 95°
2026-05-01 11:00 54.70261 87.11291 33121 ft 473 kts 95°
2026-05-01 11:01 54.69418 87.22568 33120 ft 472 kts 95°
2026-05-01 11:01 54.68567 87.33926 33117 ft 474 kts 95°
2026-05-01 11:02 54.67718 87.45067 33119 ft 472 kts 95°
2026-05-01 11:03 54.66412 87.61845 33117 ft 473 kts 95°
2026-05-01 11:03 54.65713 87.70708 33113 ft 473 kts 96°
2026-05-01 11:04 54.64669 87.83847 33122 ft 474 kts 96°
2026-05-01 11:04 54.63756 87.95152 33117 ft 473 kts 96°
2026-05-01 11:05 54.62835 88.06450 33119 ft 474 kts 95°
2026-05-01 11:05 54.61903 88.17693 33118 ft 473 kts 95°
2026-05-01 11:06 54.60951 88.29083 33120 ft 474 kts 96°
2026-05-01 11:06 54.59999 88.40325 33116 ft 473 kts 96°
2026-05-01 11:07 54.58550 88.57236 33152 ft 472 kts 95°
2026-05-01 11:07 54.57583 88.68352 33132 ft 472 kts 96°
2026-05-01 11:08 54.56925 88.79645 33148 ft 472 kts 92°
2026-05-01 11:09 54.56014 88.96426 33151 ft 470 kts 92°
2026-05-01 11:09 54.55363 89.07570 33149 ft 469 kts 93°
2026-05-01 11:10 54.54358 89.24303 33147 ft 469 kts 92°
2026-05-01 11:10 54.53662 89.35485 33149 ft 470 kts 93°
2026-05-01 11:11 54.52972 89.46585 33148 ft 468 kts 92°
2026-05-01 11:11 54.52250 89.57768 33143 ft 468 kts 93°
2026-05-01 11:12 54.51541 89.68938 33136 ft 471 kts 94°
2026-05-01 11:12 54.50811 89.80106 33145 ft 468 kts 94°
2026-05-01 11:13 54.50071 89.91254 33148 ft 470 kts 94°
2026-05-01 11:13 54.49315 90.02425 33146 ft 469 kts 94°
2026-05-01 11:14 54.48558 90.13515 33148 ft 470 kts 93°
2026-05-01 11:14 54.47789 90.24663 33149 ft 470 kts 93°
2026-05-01 11:15 54.47007 90.35794 33148 ft 469 kts 93°
2026-05-01 11:15 54.46212 90.46976 33146 ft 470 kts 93°
2026-05-01 11:16 54.45414 90.58050 33148 ft 469 kts 94°
2026-05-01 11:16 54.44608 90.69101 33132 ft 470 kts 94°
2026-05-01 11:17 54.43789 90.80254 33148 ft 470 kts 94°
2026-05-01 11:17 54.42960 90.91348 33146 ft 469 kts 94°
2026-05-01 11:18 54.42115 91.02467 33148 ft 470 kts 94°
2026-05-01 11:18 54.41258 91.13641 33145 ft 472 kts 93°
2026-05-01 11:19 54.40392 91.24797 33146 ft 473 kts 93°
2026-05-01 11:19 54.39511 91.35996 33146 ft 472 kts 93°
2026-05-01 11:20 54.38624 91.47142 33150 ft 473 kts 93°
2026-05-01 11:20 54.38672 91.58225 33166 ft 460 kts 73°
2026-05-01 11:21 54.39978 91.68986 33138 ft 462 kts 75°
2026-05-01 11:21 54.41048 91.79821 33147 ft 462 kts 76°
2026-05-01 11:22 54.42021 91.90743 33147 ft 464 kts 77°
2026-05-01 11:22 54.42973 92.01713 33119 ft 460 kts 77°
2026-05-01 11:23 54.44577 92.12161 33123 ft 450 kts 57°
2026-05-01 11:23 54.47823 92.21330 33115 ft 448 kts 54°
2026-05-01 11:24 54.50915 92.30559 33120 ft 448 kts 56°
2026-05-01 11:25 54.55400 92.44761 33116 ft 449 kts 57°
2026-05-01 11:25 54.59818 92.58950 33120 ft 449 kts 57°
2026-05-01 11:26 54.64232 92.73234 33142 ft 451 kts 57°
2026-05-01 11:27 54.67172 92.82802 33147 ft 450 kts 57°
2026-05-01 11:27 54.70085 92.92315 33146 ft 448 kts 58°
2026-05-01 11:28 54.72941 93.01847 33145 ft 444 kts 57°
2026-05-01 11:28 54.75765 93.11311 33146 ft 439 kts 56°
2026-05-01 11:29 54.79948 93.25352 33146 ft 441 kts 56°
2026-05-01 11:30 54.84114 93.39436 33151 ft 440 kts 56°
2026-05-01 11:30 54.86890 93.48865 33147 ft 438 kts 56°
2026-05-01 11:31 54.89671 93.58351 33151 ft 439 kts 56°
2026-05-01 11:31 54.92419 93.67771 33133 ft 435 kts 57°
2026-05-01 11:32 54.95130 93.77125 33142 ft 433 kts 58°
2026-05-01 11:32 54.97836 93.86478 33146 ft 432 kts 58°
2026-05-01 11:33 55.00526 93.95806 33150 ft 428 kts 58°
2026-05-01 11:33 55.03172 94.05011 33148 ft 428 kts 59°
2026-05-01 11:34 55.05840 94.14329 33147 ft 428 kts 59°
2026-05-01 11:34 55.08476 94.23574 33150 ft 428 kts 59°
2026-05-01 11:35 55.11137 94.32917 33139 ft 427 kts 58°
2026-05-01 11:35 55.13781 94.42168 33151 ft 427 kts 59°
2026-05-01 11:36 55.16403 94.51453 33152 ft 427 kts 59°
2026-05-01 11:36 55.19026 94.60796 33151 ft 427 kts 59°
2026-05-01 11:37 55.21645 94.70182 33143 ft 427 kts 59°
2026-05-01 11:37 55.24236 94.79520 33152 ft 428 kts 60°
2026-05-01 11:38 55.26804 94.88805 33151 ft 424 kts 60°
2026-05-01 11:38 55.28876 94.98560 33151 ft 426 kts 66°
2026-05-01 11:39 55.30802 95.08282 33150 ft 422 kts 65°
2026-05-01 11:39 55.32786 95.17993 33151 ft 423 kts 65°
2026-05-01 11:40 55.34778 95.27711 33151 ft 423 kts 65°
2026-05-01 11:40 55.36769 95.37463 33151 ft 423 kts 65°
2026-05-01 11:41 55.38748 95.47199 33151 ft 423 kts 65°
2026-05-01 11:41 55.40712 95.56912 33152 ft 423 kts 65°
2026-05-01 11:42 55.42670 95.66644 33143 ft 424 kts 65°
2026-05-01 11:42 55.44633 95.76484 33152 ft 424 kts 65°
2026-05-01 11:43 55.46580 95.86270 33152 ft 424 kts 65°
2026-05-01 11:43 55.48510 95.96008 33152 ft 424 kts 65°
2026-05-01 11:44 55.51421 96.10783 33149 ft 424 kts 65°
2026-05-01 11:44 55.53350 96.20628 33150 ft 424 kts 65°
2026-05-01 11:45 55.55292 96.30586 33151 ft 424 kts 65°
2026-05-01 11:45 55.57201 96.40427 33151 ft 424 kts 65°
2026-05-01 11:46 55.59102 96.50278 33153 ft 424 kts 65°
2026-05-01 11:46 55.61000 96.60165 33152 ft 424 kts 65°
2026-05-01 11:47 55.62882 96.70033 33143 ft 425 kts 66°
2026-05-01 11:47 55.64767 96.79990 33151 ft 425 kts 66°
2026-05-01 11:48 55.66635 96.89881 33146 ft 425 kts 66°
2026-05-01 11:48 55.68508 96.99841 33149 ft 425 kts 66°
2026-05-01 11:49 55.70360 97.09753 33147 ft 421 kts 66°
2026-05-01 11:49 55.72188 97.19579 33147 ft 417 kts 66°
2026-05-01 11:50 55.74019 97.29467 33145 ft 417 kts 66°
2026-05-01 11:50 55.75821 97.39251 33145 ft 417 kts 66°
2026-05-01 11:51 55.77626 97.49103 33144 ft 417 kts 66°
2026-05-01 11:51 55.79401 97.58848 33144 ft 417 kts 66°
2026-05-01 11:52 55.81164 97.68581 33132 ft 417 kts 67°
2026-05-01 11:52 55.82936 97.78447 33117 ft 418 kts 67°
2026-05-01 11:53 55.84694 97.88271 33116 ft 417 kts 67°
2026-05-01 11:53 55.86436 97.98164 33116 ft 417 kts 67°
2026-05-01 11:54 55.88128 98.08027 33118 ft 417 kts 67°
2026-05-01 11:54 55.89810 98.17857 33118 ft 417 kts 67°
2026-05-01 11:55 55.91499 98.27763 33118 ft 417 kts 67°
2026-05-01 11:55 55.93174 98.37647 33118 ft 417 kts 67°
2026-05-01 11:56 55.94857 98.47629 33115 ft 417 kts 67°
2026-05-01 11:56 55.96516 98.57527 33116 ft 420 kts 67°
2026-05-01 11:57 55.98138 98.67249 33104 ft 422 kts 68°
2026-05-01 11:57 55.99718 98.76847 33114 ft 416 kts 68°
2026-05-01 11:58 56.01380 98.86924 33121 ft 420 kts 68°
2026-05-01 11:59 56.03849 99.02022 33115 ft 419 kts 68°
2026-05-01 11:59 56.05477 99.12041 33116 ft 417 kts 68°
2026-05-01 12:00 56.07917 99.27169 33116 ft 418 kts 68°
2026-05-01 12:01 56.10039 99.42413 33112 ft 420 kts 71°
2026-05-01 12:01 56.11296 99.52201 33115 ft 420 kts 71°
2026-05-01 12:02 56.12629 99.62502 33115 ft 420 kts 71°
2026-05-01 12:02 56.13901 99.72454 33118 ft 421 kts 71°
2026-05-01 12:03 56.15200 99.82713 33116 ft 421 kts 71°
2026-05-01 12:03 56.16489 99.92951 33114 ft 421 kts 71°
2026-05-01 12:04 56.17765 100.03154 33114 ft 421 kts 71°
2026-05-01 12:04 56.19049 100.13483 33115 ft 421 kts 71°
2026-05-01 12:05 56.20322 100.23814 33115 ft 421 kts 71°
2026-05-01 12:05 56.22214 100.39296 33115 ft 421 kts 71°
2026-05-01 12:06 56.23473 100.49691 33112 ft 421 kts 71°
2026-05-01 12:06 56.24719 100.60005 33113 ft 421 kts 71°
2026-05-01 12:07 56.25899 100.69875 33112 ft 422 kts 72°
2026-05-01 12:07 56.27127 100.80236 33121 ft 422 kts 72°
2026-05-01 12:08 56.28358 100.90694 33166 ft 425 kts 73°
2026-05-01 12:08 56.29591 101.01241 33173 ft 430 kts 73°
2026-05-01 12:09 56.30824 101.11904 33177 ft 431 kts 73°
2026-05-01 12:09 56.32040 101.22500 33175 ft 431 kts 73°
2026-05-01 12:10 56.33856 101.38472 33176 ft 431 kts 73°
2026-05-01 12:11 56.35651 101.54452 33173 ft 431 kts 73°
2026-05-01 12:11 56.36843 101.65175 33174 ft 431 kts 74°
2026-05-01 12:12 56.37413 101.75539 33202 ft 441 kts 87°
2026-05-01 12:12 56.37089 101.86762 33181 ft 441 kts 87°
2026-05-01 12:13 56.36877 101.97892 33178 ft 440 kts 86°
2026-05-01 12:13 56.36716 102.08988 33176 ft 440 kts 86°
2026-05-01 12:14 56.36555 102.20094 33176 ft 440 kts 86°
2026-05-01 12:14 56.36385 102.31224 33177 ft 440 kts 86°
2026-05-01 12:15 56.36205 102.42376 33177 ft 440 kts 86°
2026-05-01 12:15 56.36016 102.53411 33177 ft 440 kts 86°
2026-05-01 12:16 56.35812 102.64582 33174 ft 440 kts 86°
2026-05-01 12:16 56.35608 102.75245 33179 ft 441 kts 86°
2026-05-01 12:17 56.35386 102.86378 33175 ft 441 kts 86°
2026-05-01 12:17 56.35154 102.97498 33175 ft 441 kts 86°
2026-05-01 12:18 56.34912 103.08736 33172 ft 447 kts 87°
2026-05-01 12:18 56.34654 103.20120 33173 ft 452 kts 88°
2026-05-01 12:19 56.34385 103.31488 33174 ft 452 kts 88°
2026-05-01 12:19 56.34105 103.42886 33174 ft 452 kts 88°
2026-05-01 12:20 56.33823 103.54272 33174 ft 452 kts 88°
2026-05-01 12:20 56.33543 103.65665 33174 ft 452 kts 89°
2026-05-01 12:21 56.33254 103.76910 33177 ft 452 kts 89°
2026-05-01 12:21 56.32950 103.88307 33175 ft 452 kts 89°
2026-05-01 12:22 56.32634 103.99765 33175 ft 453 kts 89°
2026-05-01 12:22 56.32310 104.11136 33175 ft 453 kts 89°
2026-05-01 12:23 56.31966 104.22539 33103 ft 450 kts 89°
2026-05-01 12:23 56.31605 104.33849 33118 ft 457 kts 89°
2026-05-01 12:24 56.31229 104.45327 33118 ft 456 kts 89°
2026-05-01 12:24 56.30843 104.56754 33112 ft 456 kts 89°
2026-05-01 12:25 56.30259 104.73560 33117 ft 456 kts 90°
2026-05-01 12:26 56.29846 104.85040 33113 ft 457 kts 90°
2026-05-01 12:26 56.29207 105.02268 33113 ft 457 kts 90°
2026-05-01 12:27 56.28549 105.19361 33114 ft 458 kts 90°
2026-05-01 12:28 56.27867 105.36449 33113 ft 458 kts 90°
2026-05-01 12:29 56.27159 105.53642 33112 ft 458 kts 90°
2026-05-01 12:29 56.26440 105.70548 33111 ft 458 kts 91°
2026-05-01 12:30 56.25684 105.87763 33122 ft 458 kts 91°
2026-05-01 12:31 56.25166 105.99275 33127 ft 458 kts 91°
2026-05-01 12:31 56.24637 106.10749 33133 ft 458 kts 91°
2026-05-01 12:32 56.24095 106.22297 33142 ft 459 kts 91°
2026-05-01 12:32 56.23267 106.39512 33148 ft 459 kts 91°
2026-05-01 12:33 56.22699 106.51012 33148 ft 459 kts 91°
2026-05-01 12:33 56.22120 106.62529 33145 ft 459 kts 91°
2026-05-01 12:34 56.21553 106.73627 33154 ft 459 kts 91°
2026-05-01 12:34 56.20950 106.85175 33149 ft 460 kts 92°
2026-05-01 12:35 56.20338 106.96687 33151 ft 463 kts 92°
2026-05-01 12:35 56.19708 107.08291 33152 ft 464 kts 93°
2026-05-01 12:36 56.19059 107.19886 33148 ft 464 kts 92°
2026-05-01 12:36 56.18418 107.31419 33147 ft 464 kts 92°
2026-05-01 12:37 56.17758 107.43057 33148 ft 464 kts 92°
2026-05-01 12:37 56.17091 107.54622 33148 ft 464 kts 92°
2026-05-01 12:38 56.16417 107.66105 33147 ft 463 kts 94°
2026-05-01 12:38 56.15744 107.77420 33148 ft 463 kts 93°
2026-05-01 12:39 56.15043 107.89007 33143 ft 463 kts 93°
2026-05-01 12:39 56.14336 108.00500 33142 ft 463 kts 93°
2026-05-01 12:40 56.13617 108.12028 33143 ft 463 kts 93°
2026-05-01 12:40 56.12880 108.23642 33143 ft 463 kts 93°
2026-05-01 12:41 56.12138 108.35177 33144 ft 463 kts 93°
2026-05-01 12:41 56.11387 108.46659 33141 ft 463 kts 93°
2026-05-01 12:42 56.10626 108.58144 33141 ft 464 kts 93°
2026-05-01 12:42 56.09860 108.69536 33135 ft 464 kts 94°
2026-05-01 12:43 56.09090 108.80845 33148 ft 464 kts 94°
2026-05-01 12:43 56.08291 108.92419 33149 ft 464 kts 94°
2026-05-01 12:44 56.07485 109.03934 33149 ft 464 kts 94°
2026-05-01 12:45 56.05835 109.27005 33146 ft 464 kts 95°
2026-05-01 12:45 56.04993 109.38564 33147 ft 464 kts 95°
2026-05-01 12:46 56.04145 109.50034 33147 ft 464 kts 95°
2026-05-01 12:46 56.03285 109.61523 33147 ft 464 kts 95°
2026-05-01 12:47 56.02438 109.72712 33149 ft 464 kts 95°
2026-05-01 12:47 56.01557 109.84192 33146 ft 465 kts 95°
2026-05-01 12:48 56.00664 109.95696 33147 ft 465 kts 95°
2026-05-01 12:48 55.99762 110.07240 33148 ft 465 kts 95°
2026-05-01 12:49 55.98854 110.18681 33144 ft 465 kts 95°
2026-05-01 12:49 55.97929 110.30212 33095 ft 464 kts 95°
2026-05-01 12:50 55.96998 110.41672 33052 ft 464 kts 95°
2026-05-01 12:50 55.96055 110.53156 33056 ft 464 kts 95°
2026-05-01 12:51 55.95101 110.64625 33056 ft 464 kts 95°
2026-05-01 12:52 55.93662 110.81747 33060 ft 464 kts 96°
2026-05-01 12:52 55.92191 110.98967 33058 ft 465 kts 96°
2026-05-01 12:53 55.90697 111.16161 33057 ft 465 kts 97°
2026-05-01 12:54 55.89684 111.27608 33054 ft 465 kts 97°
2026-05-01 12:54 55.88117 111.44710 33058 ft 465 kts 97°
2026-05-01 12:55 55.86543 111.61882 33056 ft 465 kts 97°
2026-05-01 12:56 55.85518 111.72974 33061 ft 465 kts 97°
2026-05-01 12:56 55.84457 111.84342 33060 ft 466 kts 97°
2026-05-01 12:57 55.83378 111.95762 33060 ft 466 kts 98°
2026-05-01 12:57 55.81730 112.12984 33061 ft 465 kts 97°
2026-05-01 12:58 55.80627 112.24371 33058 ft 466 kts 97°
2026-05-01 12:59 55.78950 112.41456 33057 ft 466 kts 97°
2026-05-01 12:59 55.77243 112.58585 33058 ft 466 kts 97°
2026-05-01 13:00 55.75558 112.75279 33064 ft 466 kts 98°
2026-05-01 13:01 55.73807 112.92373 33057 ft 464 kts 98°
2026-05-01 13:02 55.72044 113.09320 33055 ft 463 kts 99°
2026-05-01 13:07 55.58446 114.32819 33058 ft 463 kts 99°
2026-05-01 13:08 55.57143 114.44045 33058 ft 464 kts 99°
2026-05-01 13:08 55.55825 114.55309 33059 ft 463 kts 99°
2026-05-01 13:09 55.54511 114.66439 33052 ft 463 kts 100°
2026-05-01 13:09 55.53218 114.77321 33057 ft 463 kts 100°
2026-05-01 13:10 55.51878 114.88503 33055 ft 463 kts 100°
2026-05-01 13:10 55.50523 114.99707 33054 ft 463 kts 100°
2026-05-01 13:11 55.49160 115.10878 33055 ft 465 kts 101°
2026-05-01 13:11 55.47786 115.22057 33055 ft 465 kts 101°
2026-05-01 13:12 55.46386 115.33352 33054 ft 465 kts 101°
2026-05-01 13:12 55.44991 115.44510 33051 ft 465 kts 101°
2026-05-01 13:13 55.43585 115.55666 33052 ft 465 kts 101°
2026-05-01 13:13 55.42179 115.66746 33046 ft 465 kts 102°
2026-05-01 13:14 55.40765 115.77821 33061 ft 466 kts 102°
2026-05-01 13:14 55.39334 115.88927 33061 ft 465 kts 101°
2026-05-01 13:15 55.37894 116.00007 33057 ft 465 kts 101°
2026-05-01 13:15 55.36436 116.11145 33058 ft 466 kts 102°
2026-05-01 13:16 55.34978 116.22192 33058 ft 465 kts 102°
2026-05-01 13:16 55.33517 116.33182 33059 ft 466 kts 102°
2026-05-01 13:17 55.30499 116.55401 33056 ft 465 kts 102°
2026-05-01 13:18 55.28218 116.72000 33056 ft 465 kts 102°
2026-05-01 13:18 55.26688 116.83041 33058 ft 466 kts 102°
2026-05-01 13:19 55.25151 116.94043 33058 ft 466 kts 103°
2026-05-01 13:20 55.22797 117.10718 33058 ft 467 kts 103°
2026-05-01 13:20 55.21225 117.21760 33057 ft 467 kts 103°
2026-05-01 13:21 55.18843 117.38359 33058 ft 467 kts 103°
2026-05-01 13:21 55.17238 117.49443 33058 ft 467 kts 103°
2026-05-01 13:22 55.15631 117.60510 33059 ft 467 kts 103°
2026-05-01 13:22 55.14064 117.71547 33051 ft 467 kts 104°
2026-05-01 13:23 55.12492 117.82542 33055 ft 467 kts 104°
2026-05-01 13:23 55.10900 117.93576 33055 ft 467 kts 104°
2026-05-01 13:24 55.09312 118.04488 33056 ft 467 kts 104°
2026-05-01 13:25 55.06833 118.20916 33056 ft 467 kts 104°
2026-05-01 13:25 55.05168 118.31857 33057 ft 467 kts 104°
2026-05-01 13:26 55.03503 118.42744 33055 ft 467 kts 104°
2026-05-01 13:26 55.01804 118.53778 33055 ft 468 kts 104°
2026-05-01 13:27 55.00092 118.64825 33056 ft 469 kts 104°
2026-05-01 13:27 54.97551 118.81111 33060 ft 472 kts 105°
2026-05-01 13:28 54.94942 118.97646 33045 ft 461 kts 107°
2026-05-01 13:29 54.91452 119.19490 33054 ft 468 kts 107°
2026-05-01 13:31 54.86170 119.51913 33059 ft 472 kts 107°
2026-05-01 13:32 54.81712 119.79067 33059 ft 472 kts 107°
2026-05-01 13:33 54.77168 120.06302 33059 ft 472 kts 107°
2026-05-01 13:34 54.73478 120.28098 33060 ft 472 kts 107°
2026-05-01 13:35 54.70687 120.44411 33060 ft 472 kts 107°
2026-05-01 13:36 54.67876 120.60685 33058 ft 472 kts 107°
2026-05-01 13:36 54.65102 120.76643 33003 ft 473 kts 108°
2026-05-01 13:37 54.63189 120.87550 32863 ft 471 kts 108°
2026-05-01 13:37 54.61275 120.98383 32749 ft 471 kts 108°
2026-05-01 13:38 54.58400 121.14539 32769 ft 471 kts 109°
2026-05-01 13:39 54.56467 121.25320 32766 ft 470 kts 109°
2026-05-01 13:39 54.54535 121.36033 32768 ft 470 kts 109°
2026-05-01 13:40 54.52584 121.46787 32767 ft 470 kts 109°
2026-05-01 13:40 54.50631 121.57496 32766 ft 470 kts 109°
2026-05-01 13:41 54.48674 121.68162 32749 ft 470 kts 110°
2026-05-01 13:41 54.46701 121.78886 32764 ft 470 kts 110°
2026-05-01 13:42 54.44715 121.89596 32766 ft 470 kts 110°
2026-05-01 13:42 54.42732 122.00217 32766 ft 470 kts 110°
2026-05-01 13:43 54.40701 122.10902 32766 ft 469 kts 112°
2026-05-01 13:43 54.38269 122.21191 32762 ft 468 kts 115°
2026-05-01 13:44 54.35802 122.31485 32765 ft 468 kts 114°
2026-05-01 13:44 54.33355 122.41818 32765 ft 468 kts 114°
2026-05-01 13:45 54.30915 122.52114 32765 ft 468 kts 114°
2026-05-01 13:45 54.28449 122.62474 32763 ft 468 kts 114°
2026-05-01 13:46 54.26154 122.72092 32761 ft 467 kts 115°
2026-05-01 13:46 54.23566 122.82887 32762 ft 468 kts 115°
2026-05-01 13:47 54.21072 122.93223 32761 ft 468 kts 115°
2026-05-01 13:47 54.18579 123.03501 32763 ft 469 kts 116°
2026-05-01 13:48 54.16043 123.13905 32760 ft 470 kts 116°
2026-05-01 13:48 54.13511 123.24245 32761 ft 470 kts 116°
2026-05-01 13:49 54.10964 123.34597 32762 ft 470 kts 116°
2026-05-01 13:49 54.08416 123.44904 32762 ft 470 kts 116°
2026-05-01 13:50 54.05843 123.55264 32762 ft 470 kts 116°
2026-05-01 13:50 54.03280 123.65537 32760 ft 470 kts 117°
2026-05-01 13:51 54.00746 123.75678 32766 ft 469 kts 117°
2026-05-01 13:51 53.98156 123.85978 32765 ft 470 kts 117°
2026-05-01 13:52 53.95563 123.96229 32764 ft 470 kts 117°
2026-05-01 13:52 53.92965 124.06451 32764 ft 470 kts 117°
2026-05-01 13:53 53.90351 124.16687 32762 ft 470 kts 117°
2026-05-01 13:53 53.86430 124.31822 32759 ft 470 kts 117°
2026-05-01 13:54 53.83783 124.42027 32761 ft 470 kts 117°
2026-05-01 13:54 53.81131 124.52238 32760 ft 470 kts 117°
2026-05-01 13:55 53.78486 124.62377 32759 ft 470 kts 117°
2026-05-01 13:55 53.75860 124.72420 32766 ft 469 kts 118°
2026-05-01 13:56 53.73205 124.82532 32763 ft 470 kts 118°
2026-05-01 13:56 53.70522 124.92685 32762 ft 473 kts 118°
2026-05-01 13:57 53.68267 125.01177 32763 ft 477 kts 119°
2026-05-01 13:57 53.65109 125.13022 32765 ft 479 kts 120°
2026-05-01 13:58 53.62354 125.23306 32762 ft 478 kts 120°
2026-05-01 13:58 53.59608 125.33508 32763 ft 478 kts 120°
2026-05-01 13:59 53.56863 125.43662 32763 ft 478 kts 120°
2026-05-01 13:59 53.54098 125.53844 32764 ft 478 kts 120°
2026-05-01 14:00 53.51319 125.64031 32762 ft 478 kts 120°
2026-05-01 14:00 53.48567 125.74109 32765 ft 477 kts 120°
2026-05-01 14:01 53.45154 125.83376 32762 ft 462 kts 141°
2026-05-01 14:01 53.40073 125.89655 32762 ft 454 kts 152°
2026-05-01 14:02 53.34971 125.95810 32761 ft 455 kts 148°
2026-05-01 14:02 53.29941 126.02335 32760 ft 456 kts 147°
2026-05-01 14:03 53.24971 126.08871 32758 ft 456 kts 147°
2026-05-01 14:03 53.19984 126.15421 32760 ft 456 kts 147°
2026-05-01 14:04 53.14978 126.21978 32760 ft 456 kts 147°
2026-05-01 14:04 53.10840 126.27382 32760 ft 456 kts 147°
2026-05-01 14:05 53.05021 126.34956 32758 ft 457 kts 149°
2026-05-01 14:05 52.99981 126.41495 32759 ft 458 kts 150°
2026-05-01 14:06 52.94957 126.47992 32759 ft 460 kts 150°
2026-05-01 14:06 52.89948 126.54453 32760 ft 460 kts 150°
2026-05-01 14:07 52.84946 126.60857 32771 ft 460 kts 150°
2026-05-01 14:08 52.77649 126.70215 32759 ft 458 kts 151°
2026-05-01 14:08 52.72598 126.76678 32761 ft 459 kts 151°
2026-05-01 14:09 52.67570 126.83083 32804 ft 458 kts 151°
2026-05-01 14:09 52.62541 126.89462 32795 ft 459 kts 151°
2026-05-01 14:09 52.59988 126.92696 32361 ft 456 kts 151°
2026-05-01 14:10 52.57504 126.95840 31839 ft 452 kts 151°
2026-05-01 14:10 52.55022 126.98975 31321 ft 449 kts 151°
2026-05-01 14:10 52.52556 127.02084 30808 ft 445 kts 151°
2026-05-01 14:10 52.50127 127.05141 30305 ft 442 kts 151°
2026-05-01 14:11 52.47702 127.08188 29808 ft 439 kts 151°
2026-05-01 14:11 52.42903 127.14208 28834 ft 432 kts 151°
2026-05-01 14:11 52.40518 127.17172 28359 ft 428 kts 152°
2026-05-01 14:12 52.38136 127.20117 27885 ft 424 kts 152°
2026-05-01 14:12 52.35781 127.23026 27418 ft 420 kts 151°
2026-05-01 14:12 52.33433 127.25923 26956 ft 415 kts 151°
2026-05-01 14:12 52.31146 127.28744 26506 ft 411 kts 151°
2026-05-01 14:13 52.28869 127.31548 26058 ft 406 kts 151°
2026-05-01 14:13 52.27382 127.33376 25766 ft 403 kts 151°
2026-05-01 14:13 52.24540 127.36870 25205 ft 398 kts 151°
2026-05-01 14:13 52.22670 127.39164 24835 ft 394 kts 151°
2026-05-01 14:14 52.20517 127.41803 24407 ft 390 kts 151°
2026-05-01 14:14 52.18359 127.44444 23977 ft 385 kts 151°
2026-05-01 14:14 52.16239 127.47035 23552 ft 381 kts 150°
2026-05-01 14:14 52.14132 127.49609 23128 ft 377 kts 150°
2026-05-01 14:15 52.12056 127.52141 22709 ft 372 kts 150°
2026-05-01 14:15 52.09978 127.54672 22287 ft 368 kts 150°
2026-05-01 14:15 52.07928 127.57167 21867 ft 364 kts 150°
2026-05-01 14:15 52.05917 127.59611 21453 ft 360 kts 150°
2026-05-01 14:16 52.03934 127.62018 21041 ft 356 kts 150°
2026-05-01 14:16 52.01954 127.64420 20628 ft 352 kts 150°
2026-05-01 14:16 51.99998 127.66795 20193 ft 348 kts 151°
2026-05-01 14:16 51.97959 127.68739 19766 ft 335 kts 162°
2026-05-01 14:17 51.95823 127.70193 19367 ft 330 kts 164°
2026-05-01 14:17 51.93725 127.71584 18948 ft 327 kts 163°
2026-05-01 14:17 51.91653 127.73013 18525 ft 324 kts 162°
2026-05-01 14:17 51.89590 127.74482 18093 ft 322 kts 162°
2026-05-01 14:18 51.87561 127.75942 17553 ft 323 kts 161°
2026-05-01 14:18 51.85507 127.77430 17020 ft 323 kts 161°
2026-05-01 14:18 51.83458 127.78921 16509 ft 323 kts 161°
2026-05-01 14:18 51.82101 127.79911 16180 ft 322 kts 161°
2026-05-01 14:19 51.79386 127.81892 15529 ft 320 kts 160°
2026-05-01 14:19 51.77368 127.83364 15049 ft 319 kts 160°
2026-05-01 14:19 51.75372 127.84818 14579 ft 317 kts 160°
2026-05-01 14:19 51.73364 127.86280 14109 ft 315 kts 160°
2026-05-01 14:20 51.71390 127.87715 13647 ft 312 kts 160°
2026-05-01 14:20 51.67460 127.90569 12727 ft 308 kts 159°
2026-05-01 14:20 51.65517 127.91978 12271 ft 306 kts 159°
2026-05-01 14:21 51.63575 127.93385 11814 ft 303 kts 159°
2026-05-01 14:21 51.61675 127.94759 11404 ft 300 kts 158°
2026-05-01 14:21 51.59808 127.96111 11162 ft 291 kts 158°
2026-05-01 14:22 51.56186 127.98726 10629 ft 276 kts 158°
2026-05-01 14:22 51.54454 127.99972 10344 ft 271 kts 157°
2026-05-01 14:22 51.52765 128.01189 10054 ft 267 kts 157°
2026-05-01 14:22 51.51080 128.02402 9764 ft 262 kts 157°
2026-05-01 14:23 51.49445 128.03580 9581 ft 255 kts 157°
2026-05-01 14:23 51.47834 128.04736 9365 ft 249 kts 156°
2026-05-01 14:23 51.46278 128.05855 9133 ft 244 kts 155°
2026-05-01 14:23 51.44793 128.07094 8876 ft 240 kts 141°
2026-05-01 14:24 51.43589 128.08893 8645 ft 236 kts 138°
2026-05-01 14:24 51.42371 128.10628 8369 ft 234 kts 138°
2026-05-01 14:24 51.41177 128.12334 8025 ft 235 kts 137°
2026-05-01 14:24 51.39944 128.14104 7683 ft 236 kts 137°
2026-05-01 14:25 51.38731 128.15846 7357 ft 236 kts 137°
2026-05-01 14:25 51.37515 128.17596 7035 ft 235 kts 138°
2026-05-01 14:25 51.36301 128.19341 6720 ft 235 kts 137°
2026-05-01 14:25 51.35093 128.21077 6407 ft 235 kts 137°
2026-05-01 14:26 51.33887 128.22807 6097 ft 234 kts 135°
2026-05-01 14:26 51.31456 128.26298 5438 ft 236 kts 134°
2026-05-01 14:26 51.30235 128.28047 5193 ft 232 kts 136°
2026-05-01 14:27 51.29059 128.29733 5053 ft 224 kts 135°
2026-05-01 14:27 51.27906 128.31384 4843 ft 225 kts 134°
2026-05-01 14:27 51.26732 128.33066 4617 ft 227 kts 136°
2026-05-01 14:28 51.24374 128.36433 4252 ft 226 kts 137°
2026-05-01 14:28 51.23647 128.37471 4133 ft 225 kts 136°
2026-05-01 14:28 51.22479 128.39127 3923 ft 224 kts 136°
2026-05-01 14:28 51.21252 128.40602 3762 ft 222 kts 153°
2026-05-01 14:29 51.19729 128.41058 3623 ft 224 kts 181°
2026-05-01 14:29 51.18247 128.40375 3533 ft 226 kts 206°
2026-05-01 14:30 51.15605 128.34796 2987 ft 245 kts 242°
2026-05-01 14:30 51.14805 128.32433 2968 ft 239 kts 241°
2026-05-01 14:30 51.14127 128.30075 2977 ft 233 kts 257°
2026-05-01 14:31 51.14912 128.25420 2846 ft 223 kts 318°
2026-05-01 14:31 51.16162 128.24030 2703 ft 219 kts 333°
2026-05-01 14:31 51.17098 128.23209 2589 ft 219 kts 334°
2026-05-01 14:31 51.18446 128.22014 2215 ft 225 kts 333°
2026-05-01 14:32 51.19797 128.20815 2212 ft 221 kts 333°
2026-05-01 14:32 51.21131 128.19647 2224 ft 220 kts 334°
2026-05-01 14:32 51.22482 128.18454 2238 ft 220 kts 333°
2026-05-01 14:32 51.23813 128.17270 2264 ft 220 kts 333°
2026-05-01 14:33 51.25169 128.16190 2313 ft 216 kts 347°
2026-05-01 14:33 51.26650 128.16061 2225 ft 218 kts 16°
2026-05-01 14:33 51.27992 128.17120 2235 ft 218 kts 40°
2026-05-01 14:33 51.28940 128.18951 2298 ft 215 kts 59°
2026-05-01 14:34 51.29693 128.21075 2170 ft 215 kts 62°
2026-05-01 14:34 51.30383 128.23080 2180 ft 194 kts 59°
2026-05-01 14:34 51.31005 128.24846 2176 ft 170 kts 61°
2026-05-01 14:34 51.31547 128.26398 2145 ft 155 kts 59°
2026-05-01 14:35 51.32052 128.27896 2149 ft 149 kts 69°
2026-05-01 14:35 51.32270 128.29488 2162 ft 150 kts 88°
2026-05-01 14:35 51.31975 128.31149 2173 ft 163 kts 123°
2026-05-01 14:35 51.31073 128.32248 2202 ft 167 kts 152°
2026-05-01 14:36 51.30071 128.32985 2203 ft 153 kts 152°
2026-05-01 14:36 51.29115 128.33775 2227 ft 158 kts 147°
2026-05-01 14:36 51.28135 128.34651 2297 ft 165 kts 148°
2026-05-01 14:36 51.27150 128.35522 2297 ft 156 kts 147°
2026-05-01 14:37 51.26198 128.36346 2210 ft 153 kts 147°
2026-05-01 14:37 51.25259 128.37180 2038 ft 157 kts 148°
2026-05-01 14:37 51.24297 128.38013 1845 ft 160 kts 148°
2026-05-01 14:37 51.23331 128.38864 1658 ft 155 kts 148°
2026-05-01 14:38 51.22403 128.39677 1464 ft 154 kts 148°
2026-05-01 14:38 51.21463 128.40500 1306 ft 156 kts 148°
2026-05-01 14:38 51.20495 128.41342 1099 ft 158 kts 149°
2026-05-01 14:38 51.19552 128.42162 928 ft 152 kts 148°
2026-05-01 14:39 51.18626 128.42976 735 ft 153 kts 149°
2026-05-01 14:39 51.17701 128.43785 624 ft 146 kts 149°
2026-05-01 14:39 51.16936 128.44453 623 ft 104 kts 152°
2026-05-01 14:39 51.16503 128.44830 623 ft 38 kts 150°
2026-05-01 14:40 51.16317 128.44995 623 ft 24 kts 150°
2026-05-01 14:40 51.16166 128.45125 623 ft 22 kts 153°
2026-05-01 14:40 51.16056 128.45218 623 ft 18 kts 150°
2026-05-01 14:40 51.15945 128.45316 623 ft 18 kts 150°
2026-05-01 14:41 51.15826 128.45418 623 ft 17 kts 151°
2026-05-01 14:41 51.15771 128.45465 622 ft 8 kts 151°
2026-05-01 14:41 51.15712 128.45515 623 ft 10 kts 151°
2026-05-01 14:41 51.15665 128.45599 623 ft 10 kts 103°
2026-05-01 14:42 51.15679 128.45689 623 ft 8 kts 60°
2026-05-01 14:42 51.15711 128.45784 623 ft 11 kts 62°
2026-05-01 14:42 51.15752 128.45906 623 ft 13 kts 61°
2026-05-01 14:42 51.15808 128.45989 623 ft 9 kts 339°
2026-05-01 14:43 51.15874 128.45927 623 ft 12 kts 331°
2026-05-01 14:43 51.15957 128.45857 623 ft 14 kts 332°
2026-05-01 14:43 51.16055 128.45772 623 ft 17 kts 331°
2026-05-01 14:43 51.16164 128.45677 623 ft 18 kts 331°
2026-05-01 14:44 51.16283 128.45573 623 ft 19 kts 331°
2026-05-01 14:44 51.16498 128.45390 623 ft 17 kts 332°
2026-05-01 14:44 51.16609 128.45293 623 ft 18 kts 331°
2026-05-01 14:45 51.16727 128.45190 623 ft 20 kts 332°
2026-05-01 14:45 51.16989 128.44965 622 ft 22 kts 331°
2026-05-01 14:45 51.17130 128.44842 622 ft 23 kts 331°
2026-05-01 14:46 51.17280 128.44713 623 ft 25 kts 331°
2026-05-01 14:46 51.17574 128.44459 623 ft 21 kts 332°
2026-05-01 14:46 51.17707 128.44344 623 ft 18 kts 331°
2026-05-01 14:47 51.17817 128.44247 623 ft 12 kts 331°
2026-05-01 14:47 51.17866 128.44226 623 ft 5 kts 27°
2026-05-01 14:47 51.17899 128.44293 623 ft 8 kts 44°
2026-05-01 14:48 51.17948 128.44266 623 ft 0 kts 285°